Terminal Aerodrome Forecast
Issued by NWS Raleigh/Durham, NC

Home | Current Version | Previous Version | Text Only | Print | Product List | Glossary On
Versions: 1 2 3 4 5 6 7 8 9 10 11 12 13 14 15 16 17 18 19 20 21 22 23 24 25 26 27 28 29 30 31 32 33
174
FTUS42 KRAH 110848 AAA
TAFGSO
TAF AMD
KGSO 110848Z 1109/1206 33006KT P6SM SKC
     FM111500 29008KT P6SM SKC
     FM112300 VRB02KT P6SM FEW200=

USA.gov is the U.S. government's official web portal to all federal, state and local government web resources and services.